Content
SEND FEEDBACK

Daily
Averages
Monthly
Summary
Turkmenistan

ASHGABAT, TURKMENISTAN


Home > Asia > Turkmenistan
Elevation: 775 feet     Latitude: 37 58N     Longitude: 058 20E

WEATHER
 
SELECT A DAY
Number of Records: 177,096;   Date Range: 3/15/97 - 7/20/14
 
SHARE

PRINT THIS DATA

[ ← Previous Day ]
WEATHER ALMANAC - OCTOBER 1, 2013
[ Next Day → ]
[ °C ]   °F
Weather ElementAverageHighLow
Temperature71.6 °F82.4 °F (3:00 pm)60.8 °F (6:30 am)
Dewpoint46.3 °F56 °F (2:00 am)41 °F (11:00 am)
Humidity39.8 %59 % (6:30 am)18 % (2:00 pm)
Barometer30.01 in30.06 in (10:00 am)29.95 in (1:00 am)
Wind Speed6.7 mph11.2 mph (4:00 am)
Wind Gust24.6 mph (6:00 pm)
Weather ElementAverage
Visibility6.2 mi
Wind DirectionSW (220.3 °)

Weather ElementTotal
Precipitation---
Cooling Degree Days6.6 (Base 65)
Growing Degree Days21.6 (Base 50)
Averaged from 40 records on October 1, 2013
WEATHER CONDITIONS BREAKOUT
WIND DIRECTION BREAKOUT
WEATHER BY HOUR - OCTOBER 1, 2013
[ °C ]   °F
Local TimeTemperatureDewpointHumidityBarometerVisibilityWind DirectionWind SpeedGust SpeedPrecipitationEventsConditions
1:00 AM73.4 °F53.6 °F50 %29.95 in6.2 miWNW (300°)6.7 mphMostly Cloudy
2:00 AM72.0 °F56.0 °F47 %29.95 in6.0 miNW (310°)6.7 mphPartly Cloudy
2:00 AM71.6 °F55.4 °F57 %29.95 in6.2 miWNW (300°)6.7 mphMostly Cloudy
3:00 AM71.6 °F51.8 °F50 %29.98 in6.2 miWNW (300°)8.9 mphMostly Cloudy
4:00 AM68.0 °F48.2 °F49 %29.98 in6.2 miWNW (290°)11.2 mphScattered Clouds
4:30 AM66.2 °F46.4 °F49 %29.98 in6.2 miWNW (290°)6.7 mphScattered Clouds
5:00 AM66.0 °F49.0 °F43 %29.99 in6.0 miWest (280°)6.7 mph
5:00 AM64.4 °F46.4 °F52 %29.98 in6.2 miWest (280°)6.7 mphClear
5:30 AM64.4 °F46.4 °F52 %30.01 in6.2 miWest (280°)4.5 mphClear
6:00 AM62.6 °F46.4 °F55 %30.01 in6.2 miWNW (300°)4.5 mphClear
6:30 AM60.8 °F46.4 °F59 %30.01 in6.2 miWNW (300°)6.7 mphClear
7:00 AM60.8 °F46.4 °F59 %30.01 in6.2 miWNW (290°)6.7 mphClear
7:30 AM60.8 °F46.4 °F59 %30.01 in6.2 miWNW (300°)6.7 mphClear
8:00 AM63.0 °F47.0 °F46 %30.03 in6.0 miWNW (300°)6.7 mph
8:00 AM64.4 °F46.4 °F52 %30.04 in6.2 miWNW (300°)4.5 mphClear
8:30 AM66.2 °F44.6 °F46 %30.04 in6.2 miWNW (290°)8.9 mphClear
9:00 AM68.0 °F42.8 °F40 %30.04 in6.2 miNW (310°)8.9 mphClear
9:30 AM68.0 °F44.6 °F43 %30.04 in6.2 miWNW (290°)11.2 mphClear
10:00 AM69.8 °F42.8 °F38 %30.06 in6.2 miWNW (300°)8.9 mphClear
10:30 AM69.8 °F42.8 °F38 %30.06 in6.2 miNNW (330°)8.9 mphClear
11:00 AM71.6 °F42.8 °F35 %30.04 in6.2 miNNW (330°)8.9 mphClear
11:00 AM71.0 °F41.0 °F23 %30.05 in6.0 miNNW (330°)8.9 mph
11:30 AM73.4 °F42.8 °F33 %30.04 in6.2 miNorth (350°)6.7 mphClear
12:00 PM75.2 °F42.8 °F31 %30.04 in6.2 miNorth (10°)4.5 mphClear
12:30 PM75.2 °F42.8 °F31 %30.04 in6.2 miNNE (20°)4.5 mphClear
1:00 PM77.0 °F42.8 °F29 %30.04 in6.2 miNNW (330°)4.5 mphClear
2:00 PM78.8 °F42.8 °F28 %30.01 in6.2 miNNE (20°)4.5 mphClear
2:00 PM78.0 °F43.0 °F18 %30.01 in6.0 miWNW (300°)6.7 mph
3:00 PM82.4 °F44.6 °F26 %30.01 in6.2 miEast (80°)4.5 mphClear
4:00 PM80.6 °F42.8 °F26 %29.98 in6.2 miSE (140°)6.7 mphClear
5:00 PM82.4 °F46.4 °F28 %29.98 in6.2 miEast (80°)4.5 mphClear
5:00 PM82.0 °F46.0 °F18 %29.96 in6.0 miNE (50°)4.5 mph
6:00 PM82.4 °F46.4 °F28 %29.98 in6.2 miSE (130°)8.9 mph24.6 mphClear
7:00 PM78.8 °F48.2 °F34 %29.98 in6.2 miESE (110°)6.7 mphClear
8:00 PM77.0 °F54.0 °F34 %30.00 in6.0 miENE (70°)6.7 mph
8:00 PM77.0 °F44.6 °F32 %30.01 in6.2 miEast (80°)6.7 mphClear
9:00 PM73.4 °F44.6 °F36 %30.01 in6.2 miSE (130°)4.5 mphClear
10:00 PM73.4 °F46.4 °F38 %30.01 in6.2 miESE (110°)8.9 mphClear
11:00 PM70.0 °F49.0 °F37 %30.01 in6.0 miEast (100°)4.5 mph
11:00 PM71.6 °F46.4 °F41 %30.01 in6.2 miEast (100°)4.5 mphClear
Hourly data recorded from UTAA, located miles away from Ashgabat, Turkmenistan







STORIES FROM OUR PARTNERS